Weather History for Mount Sterling, KY

Change the Weather History Date:

Wednesday, February 27, 2013

  Actual Average Record
Temperature  
Mean Temperature 36 °F -  
Max Temperature 39 °F 49 °F 39 °F (2013)
Min Temperature 32 °F 26 °F 17 °F (2014)
Degree Days  
Heating Degree Days 30    
Moisture  
Dew Point 33 °F    
Average Humidity 90    
Maximum Humidity 100    
Minimum Humidity 75    
Precipitation  
Precipitation 0.00 in - - ()
Sea Level Pressure  
Sea Level Pressure 29.72 in    
Wind  
Wind Speed 13 mph (West)    
Max Wind Speed 21 mph    
Max Gust Speed 30 mph    
Visibility 8 miles    
Events Rain , Snow    
Averages and records for this station are not official NWS values.
T = Trace of Precipitation, MM = Missing Value Source: NWS Daily Summary

Daily Weather History Graph

Daily Weather History Graph

Search for Another Location

Airport:

Trip Planner

Search our weather history database for the weather conditions in past years. The results will help you decide how hot, cold, wet, or windy it might be!

Date:

Astronomy

Feb. 27, 2013 Rise Set
Actual Time 7:10 AM EST 6:27 PM EST
Civil Twilight 6:43 AM EST 6:54 PM EST
Nautical Twilight 6:13 AM EST 7:24 PM EST
Astronomical Twilight 5:42 AM EST 7:55 PM EST
Moon 8:44 PM EST (2/27) 7:47 AM EST (2/27)
Length of Visible Light 12h 10m
Length of Day
11h 17m
Waning Gibbous, 96% of the Moon is Illuminated
Feb 27
Waning Gibbous
Mar 4
Last Quarter
Mar 11
New
Mar 19
First Quarter
Mar 27
Full

Hourly Weather History & Observations

Time (EST) Temp. Windchill Dew Point Humidity Pressure Visibility Wind Dir Wind Speed Gust Speed Precip Events Conditions
12:15 AM 37.4 °F 27.8 °F 35.6 °F 93% 29.61 in 7.0 mi West 17.3 mph 27.6 mph N/A Rain Light Rain
12:35 AM 37.4 °F 28.5 °F 35.6 °F 93% 29.61 in 10.0 mi West 15.0 mph 25.3 mph N/A Rain Light Rain
12:55 AM 37.4 °F 27.8 °F 35.6 °F 93% 29.61 in 10.0 mi West 17.3 mph 24.2 mph N/A Rain Light Rain
1:15 AM 37.4 °F 29.3 °F 35.6 °F 93% 29.62 in 10.0 mi West 12.7 mph 21.9 mph N/A Rain Light Rain
1:35 AM 37.4 °F 30.8 °F 35.6 °F 93% 29.63 in 10.0 mi WSW 9.2 mph - N/A Rain Light Rain
1:55 AM 37.4 °F 30.3 °F 35.6 °F 93% 29.63 in 10.0 mi WSW 10.4 mph 17.3 mph N/A   Drizzle
2:15 AM 37.4 °F 29.8 °F 35.6 °F 93% 29.63 in 10.0 mi West 11.5 mph 19.6 mph N/A   Light Drizzle
2:35 AM 37.4 °F 30.8 °F 35.6 °F 93% 29.64 in 10.0 mi West 9.2 mph 16.1 mph N/A   Overcast
2:55 AM 37.4 °F 30.8 °F 35.6 °F 93% 29.63 in 10.0 mi West 9.2 mph 17.3 mph N/A   Overcast
3:15 AM 37.4 °F 29.3 °F 35.6 °F 93% 29.64 in 10.0 mi WSW 12.7 mph 16.1 mph N/A   Overcast
3:35 AM 37.4 °F 29.3 °F 35.6 °F 93% 29.64 in 10.0 mi West 12.7 mph 18.4 mph N/A   Overcast
3:55 AM 37.4 °F 28.9 °F 35.6 °F 93% 29.64 in 10.0 mi WSW 13.8 mph 18.4 mph N/A   Overcast
4:35 AM 37.4 °F 31.4 °F 35.6 °F 93% 29.65 in 10.0 mi West 8.1 mph - N/A   Drizzle
4:55 AM 37.4 °F 30.3 °F 35.6 °F 93% 29.66 in 10.0 mi West 10.4 mph - N/A   Overcast
5:35 AM 37.4 °F 29.8 °F 33.8 °F 87% 29.67 in 10.0 mi West 11.5 mph 19.6 mph N/A   Overcast
5:55 AM 37.4 °F 27.8 °F 33.8 °F 87% 29.67 in 10.0 mi West 17.3 mph 23.0 mph N/A   Light Drizzle
6:15 AM 37.4 °F 29.3 °F 33.8 °F 87% 29.68 in 10.0 mi West 12.7 mph 21.9 mph N/A   Overcast
6:35 AM 37.4 °F 28.2 °F 33.8 °F 87% 29.68 in 10.0 mi West 16.1 mph 24.2 mph N/A   Overcast
6:55 AM 37.4 °F 29.8 °F 33.8 °F 87% 29.69 in 10.0 mi WSW 11.5 mph 20.7 mph N/A   Overcast
7:15 AM 37.4 °F 28.5 °F 33.8 °F 87% 29.70 in 10.0 mi West 15.0 mph 19.6 mph N/A   Overcast
7:35 AM 37.4 °F 28.9 °F 33.8 °F 87% 29.71 in 10.0 mi West 13.8 mph 23.0 mph N/A   Overcast
7:55 AM 37.4 °F 29.3 °F 33.8 °F 87% 29.72 in 10.0 mi West 12.7 mph 23.0 mph N/A   Overcast
8:15 AM 37.4 °F 29.3 °F 33.8 °F 87% 29.73 in 7.0 mi WSW 12.7 mph 18.4 mph N/A   Light Drizzle
8:35 AM 37.4 °F 29.3 °F 33.8 °F 87% 29.73 in 10.0 mi West 12.7 mph 23.0 mph N/A   Overcast
8:55 AM 35.6 °F 27.1 °F 33.8 °F 93% 29.74 in 5.0 mi West 12.7 mph 18.4 mph N/A   Drizzle
9:15 AM 35.6 °F 26.6 °F 33.8 °F 93% 29.74 in 7.0 mi West 13.8 mph 17.3 mph N/A   Light Drizzle
9:35 AM 35.6 °F 27.5 °F 35.6 °F 100% 29.75 in 3.0 mi WSW 11.5 mph - N/A   Drizzle
9:55 AM 35.6 °F 25.5 °F 33.8 °F 93% 29.75 in 4.0 mi West 17.3 mph 25.3 mph N/A Rain Light Rain
10:15 AM 37.4 °F 28.2 °F 33.8 °F 87% 29.75 in 10.0 mi West 16.1 mph 23.0 mph N/A   Overcast
10:35 AM 37.4 °F 29.8 °F 33.8 °F 87% 29.75 in 10.0 mi WSW 11.5 mph 17.3 mph N/A   Overcast
10:55 AM 37.4 °F 27.8 °F 33.8 °F 87% 29.75 in 10.0 mi WSW 17.3 mph - N/A   Overcast
11:15 AM 37.4 °F 29.3 °F 33.8 °F 87% 29.75 in 10.0 mi WSW 12.7 mph 18.4 mph N/A   Overcast
11:35 AM 37.4 °F 28.5 °F 33.8 °F 87% 29.75 in 10.0 mi West 15.0 mph 19.6 mph N/A   Overcast
11:55 AM 37.4 °F 28.9 °F 33.8 °F 87% 29.74 in 7.0 mi WSW 13.8 mph 24.2 mph N/A   Overcast
12:15 PM 39.2 °F 30.2 °F 33.8 °F 81% 29.74 in 10.0 mi WSW 17.3 mph 24.2 mph N/A   Overcast
12:35 PM 39.2 °F 29.3 °F 33.8 °F 81% 29.73 in 10.0 mi WSW 20.7 mph 27.6 mph N/A   Overcast
1:15 PM 39.2 °F 30.5 °F 32.0 °F 75% 29.73 in 10.0 mi West 16.1 mph 28.8 mph N/A   Overcast
1:55 PM 39.2 °F 30.5 °F 33.8 °F 81% 29.72 in 10.0 mi West 16.1 mph 21.9 mph N/A   Overcast
2:15 PM 37.4 °F 28.2 °F 32.0 °F 81% 29.72 in 10.0 mi WSW 16.1 mph 24.2 mph N/A   Overcast
2:35 PM 37.4 °F 28.2 °F 33.8 °F 87% 29.72 in 10.0 mi West 16.1 mph 24.2 mph N/A   Overcast
2:55 PM 39.2 °F 31.2 °F 32.0 °F 75% 29.72 in 10.0 mi West 13.8 mph 27.6 mph N/A   Overcast
3:15 PM 39.2 °F 32.0 °F 32.0 °F 75% 29.72 in 10.0 mi West 11.5 mph 25.3 mph N/A   Overcast
3:35 PM 37.4 °F 28.2 °F 32.0 °F 81% 29.73 in 10.0 mi WSW 16.1 mph 24.2 mph N/A   Overcast
3:55 PM 37.4 °F 28.9 °F 32.0 °F 81% 29.73 in 10.0 mi West 13.8 mph 21.9 mph N/A   Overcast
4:15 PM 37.4 °F 30.3 °F 32.0 °F 81% 29.74 in 10.0 mi West 10.4 mph 27.6 mph N/A   Overcast
4:35 PM 35.6 °F 27.5 °F 32.0 °F 87% 29.76 in 5.0 mi WNW 11.5 mph 29.9 mph N/A Rain Rain
4:55 PM 33.8 °F 24.3 °F 32.0 °F 93% 29.77 in 7.0 mi West 13.8 mph 21.9 mph N/A   Overcast
5:15 PM 33.8 °F 25.8 °F 32.0 °F 93% 29.78 in 4.0 mi WNW 10.4 mph 16.1 mph N/A   Drizzle
5:35 PM 33.8 °F 25.3 °F 32.0 °F 93% 29.78 in 1.2 mi West 11.5 mph 17.3 mph N/A Snow Light Snow
5:55 PM 32.0 °F 22.5 °F 32.0 °F 100% 29.78 in 1.5 mi West 12.7 mph 19.6 mph N/A Snow Light Snow
6:15 PM 33.8 °F 24.3 °F 32.0 °F 93% 29.78 in 3.0 mi West 13.8 mph 21.9 mph N/A Snow Light Snow
6:35 PM 33.8 °F 24.3 °F 32.0 °F 93% 29.78 in 4.0 mi West 13.8 mph 19.6 mph N/A Snow Light Snow
6:55 PM 33.8 °F 25.8 °F 32.0 °F 93% 29.79 in 4.0 mi West 10.4 mph - N/A Snow Light Snow
7:15 PM 33.8 °F 25.8 °F 32.0 °F 93% 29.80 in 5.0 mi West 10.4 mph 16.1 mph N/A Snow Light Snow
7:35 PM 33.8 °F 25.3 °F 32.0 °F 93% 29.80 in 3.0 mi West 11.5 mph 17.3 mph N/A Snow Light Snow
7:55 PM 33.8 °F 26.4 °F 32.0 °F 93% 29.80 in 7.0 mi West 9.2 mph 16.1 mph N/A   Overcast
8:15 PM 33.8 °F 25.3 °F 32.0 °F 93% 29.80 in 7.0 mi West 11.5 mph 17.3 mph N/A Snow Light Snow
8:35 PM 33.8 °F 27.0 °F 32.0 °F 93% 29.80 in 7.0 mi West 8.1 mph - N/A   Overcast
9:15 PM 33.8 °F 25.3 °F 32.0 °F 93% 29.79 in 10.0 mi West 11.5 mph 18.4 mph N/A   Overcast
9:35 PM 33.8 °F 25.8 °F 32.0 °F 93% 29.79 in 10.0 mi West 10.4 mph - N/A   Overcast
9:55 PM 33.8 °F 25.8 °F 32.0 °F 93% 29.79 in 10.0 mi West 10.4 mph - N/A   Overcast
10:15 PM 33.8 °F 24.8 °F 32.0 °F 93% 29.78 in 10.0 mi West 12.7 mph 16.1 mph N/A   Overcast
10:35 PM 33.8 °F 25.8 °F 32.0 °F 93% 29.78 in 10.0 mi West 10.4 mph - N/A   Overcast
10:55 PM 33.8 °F 25.3 °F 32.0 °F 93% 29.78 in 10.0 mi West 11.5 mph 16.1 mph N/A   Overcast
11:15 PM 33.8 °F 26.4 °F 32.0 °F 93% 29.78 in 7.0 mi WSW 9.2 mph - N/A Snow Light Snow
11:35 PM 33.8 °F 27.7 °F 32.0 °F 93% 29.78 in 5.0 mi WSW 6.9 mph - N/A Snow Light Snow
11:55 PM 33.8 °F 24.3 °F 32.0 °F 93% 29.76 in 7.0 mi WSW 13.8 mph 18.4 mph N/A   Overcast